Weather History for Madison, SD

Change the Weather History Date:

Monday, September 30, 2013

  Actual Average Record
Temperature  
Mean Temperature 68 °F -  
Max Temperature 82 °F 69 °F 82 °F (2013)
Min Temperature 55 °F 42 °F 35 °F (2011)
Cooling Degree Days 4    
Growing Degree Days 18 (Base 50)    
Moisture  
Dew Point 44 °F    
Average Humidity 44    
Maximum Humidity 67    
Minimum Humidity 24    
Precipitation  
Precipitation 0.00 in - - ()
Sea Level Pressure  
Sea Level Pressure 29.62 in    
Wind  
Wind Speed 15 mph (SSW)    
Max Wind Speed 22 mph    
Max Gust Speed 33 mph    
Visibility 10 miles    
Events      
Averages and records for this station are not official NWS values.
T = Trace of Precipitation, MM = Missing Value Source: NWS Daily Summary

Daily Weather History Graph

Daily Weather History Graph

Search for Another Location

Airport:

Trip Planner

Search our weather history database for the weather conditions in past years. The results will help you decide how hot, cold, wet, or windy it might be!

Date:

Astronomy

Sep. 30, 2013 Rise Set
Actual Time 7:25 AM CDT 7:10 PM CDT
Civil Twilight 6:56 AM CDT 7:39 PM CDT
Nautical Twilight 6:22 AM CDT 8:12 PM CDT
Astronomical Twilight 5:48 AM CDT 8:46 PM CDT
Moon 2:55 AM CDT (9/30) 4:48 PM CDT (9/30)
Length of Visible Light 12h 42m
Length of Day
11h 45m
Waning Crescent, 19% of the Moon is Illuminated
Sep 30
Waning Crescent
Oct 4
New
Oct 11
First Quarter
Oct 18
Full
Oct 26
Last Quarter

Hourly Weather History & Observations

Time (CDT) Temp. Dew Point Humidity Pressure Visibility Wind Dir Wind Speed Gust Speed Precip Events Conditions
12:10 AM 62.6 °F 42.8 °F 48% 29.69 in 10.0 mi SSW 21.9 mph 29.9 mph N/A   Clear
12:30 AM 62.6 °F 42.8 °F 48% 29.69 in 10.0 mi SSW 18.4 mph 32.2 mph N/A   Clear
12:50 AM 62.6 °F 42.8 °F 48% 29.69 in 10.0 mi SSW 19.6 mph 27.6 mph N/A   Clear
1:10 AM 64.4 °F 42.8 °F 45% 29.68 in 10.0 mi SSW 21.9 mph 29.9 mph N/A   Clear
1:30 AM 62.6 °F 42.8 °F 48% 29.68 in 10.0 mi SSW 17.3 mph 33.4 mph N/A   Clear
1:50 AM 62.6 °F 42.8 °F 48% 29.68 in 10.0 mi SSW 19.6 mph 27.6 mph N/A   Clear
2:10 AM 62.6 °F 42.8 °F 48% 29.68 in 10.0 mi SSW 17.3 mph 23.0 mph N/A   Clear
2:30 AM 62.6 °F 42.8 °F 48% 29.68 in 10.0 mi SSW 17.3 mph 24.2 mph N/A   Clear
2:50 AM 62.6 °F 42.8 °F 48% 29.67 in 10.0 mi SSW 17.3 mph 25.3 mph N/A   Clear
3:10 AM 62.6 °F 41.0 °F 45% 29.66 in 10.0 mi SSW 16.1 mph 25.3 mph N/A   Clear
3:30 AM 60.8 °F 41.0 °F 48% 29.65 in 10.0 mi SSW 18.4 mph 25.3 mph N/A   Clear
3:50 AM 60.8 °F 41.0 °F 48% 29.65 in 10.0 mi SSW 17.3 mph 25.3 mph N/A   Clear
4:10 AM 62.6 °F 41.0 °F 45% 29.66 in 10.0 mi SW 12.7 mph 24.2 mph N/A   Clear
4:30 AM 60.8 °F 42.8 °F 52% 29.65 in 10.0 mi SSW 15.0 mph 20.7 mph N/A   Clear
4:50 AM 60.8 °F 42.8 °F 52% 29.65 in 10.0 mi SSW 12.7 mph - N/A   Clear
5:10 AM 59.0 °F 42.8 °F 55% 29.65 in 10.0 mi SSW 10.4 mph 17.3 mph N/A   Clear
5:30 AM 59.0 °F 42.8 °F 55% 29.65 in 10.0 mi SSW 9.2 mph - N/A   Clear
5:50 AM 57.2 °F 42.8 °F 59% 29.65 in 10.0 mi South 10.4 mph - N/A   Clear
6:10 AM 57.2 °F 42.8 °F 59% 29.65 in 10.0 mi South 10.4 mph - N/A   Clear
6:30 AM 57.2 °F 44.6 °F 63% 29.64 in 10.0 mi South 10.4 mph - N/A   Clear
6:50 AM 57.2 °F 44.6 °F 63% 29.64 in 10.0 mi SSW 10.4 mph - N/A   Clear
7:10 AM 57.2 °F 44.6 °F 63% 29.65 in 10.0 mi SSW 10.4 mph - N/A   Clear
7:30 AM 55.4 °F 44.6 °F 67% 29.64 in 10.0 mi South 9.2 mph - N/A   Clear
7:50 AM 55.4 °F 44.6 °F 67% 29.65 in 10.0 mi South 9.2 mph - N/A   Clear
8:10 AM 55.4 °F 44.6 °F 67% 29.64 in 10.0 mi South 10.4 mph - N/A   Clear
8:30 AM 55.4 °F 44.6 °F 67% 29.64 in 10.0 mi South 9.2 mph - N/A   Clear
8:50 AM 55.4 °F 44.6 °F 67% 29.65 in 10.0 mi SSW 9.2 mph - N/A   Clear
9:10 AM 59.0 °F 46.4 °F 63% 29.64 in 10.0 mi SSW 10.4 mph 16.1 mph N/A   Clear
9:30 AM 62.6 °F 44.6 °F 52% 29.63 in 10.0 mi SSW 13.8 mph 20.7 mph N/A   Clear
9:50 AM 64.4 °F 44.6 °F 49% 29.64 in 10.0 mi SW 15.0 mph - N/A   Clear
10:10 AM 64.4 °F 44.6 °F 49% 29.64 in 10.0 mi SW 18.4 mph 23.0 mph N/A   Clear
10:30 AM 66.2 °F 46.4 °F 49% 29.64 in 10.0 mi SW 16.1 mph 21.9 mph N/A   Clear
10:50 AM 68.0 °F 46.4 °F 46% 29.64 in 10.0 mi SSW 15.0 mph 20.7 mph N/A   Clear
11:10 AM 68.0 °F 44.6 °F 43% 29.65 in 10.0 mi WSW 10.4 mph - N/A   Clear
11:30 AM 69.8 °F 44.6 °F 40% 29.65 in 10.0 mi SW 10.4 mph - N/A   Clear
11:50 AM 71.6 °F 44.6 °F 38% 29.64 in 10.0 mi WSW 10.4 mph - N/A   Clear
12:10 PM 73.4 °F 44.6 °F 36% 29.64 in 10.0 mi SW 10.4 mph - N/A   Clear
12:30 PM 75.2 °F 44.6 °F 34% 29.63 in 10.0 mi South 10.4 mph - N/A   Clear
12:50 PM 77.0 °F 44.6 °F 32% 29.63 in 10.0 mi SSW 11.5 mph 18.4 mph N/A   Clear
1:10 PM 77.0 °F 44.6 °F 32% 29.62 in 10.0 mi SSW 12.7 mph 18.4 mph N/A   Clear
1:30 PM 78.8 °F 42.8 °F 28% 29.62 in 10.0 mi South 12.7 mph 16.1 mph N/A   Clear
1:50 PM 78.8 °F 42.8 °F 28% 29.61 in 10.0 mi SW 13.8 mph 19.6 mph N/A   Clear
2:10 PM 80.6 °F 42.8 °F 26% 29.61 in 10.0 mi SW 12.7 mph 19.6 mph N/A   Clear
2:30 PM 80.6 °F 42.8 °F 26% 29.61 in 10.0 mi WSW 15.0 mph 23.0 mph N/A   Clear
2:50 PM 80.6 °F 42.8 °F 26% 29.60 in 10.0 mi WSW 13.8 mph 20.7 mph N/A   Clear
3:10 PM 80.6 °F 44.6 °F 28% 29.60 in 10.0 mi SW 13.8 mph 20.7 mph N/A   Clear
3:30 PM 80.6 °F 42.8 °F 26% 29.59 in 10.0 mi SW 12.7 mph 21.9 mph N/A   Clear
3:50 PM 82.4 °F 42.8 °F 25% 29.59 in 10.0 mi SSW 11.5 mph 20.7 mph N/A   Clear
4:10 PM 80.6 °F 42.8 °F 26% 29.59 in 10.0 mi SW 13.8 mph 23.0 mph N/A   Clear
4:30 PM 80.6 °F 41.0 °F 24% 29.58 in 10.0 mi WSW 12.7 mph 19.6 mph N/A   Clear
4:50 PM 80.6 °F 42.8 °F 26% 29.58 in 10.0 mi SSW 12.7 mph 20.7 mph N/A   Clear
5:10 PM 80.6 °F 42.8 °F 26% 29.58 in 10.0 mi SSW 13.8 mph - N/A   Clear
5:30 PM 80.6 °F 41.0 °F 24% 29.58 in 10.0 mi SW 11.5 mph - N/A   Clear
5:50 PM 80.6 °F 41.0 °F 24% 29.58 in 10.0 mi SSW 12.7 mph 19.6 mph N/A   Clear
6:10 PM 80.6 °F 41.0 °F 24% 29.58 in 10.0 mi SW 9.2 mph 16.1 mph N/A   Clear
6:30 PM 78.8 °F 41.0 °F 26% 29.58 in 10.0 mi SSW 8.1 mph - N/A   Clear
6:50 PM 75.2 °F 41.0 °F 29% 29.58 in 10.0 mi South 4.6 mph - N/A   Clear
7:10 PM 73.4 °F 42.8 °F 33% 29.58 in 10.0 mi SSE 5.8 mph - N/A   Clear
7:30 PM 69.8 °F 42.8 °F 38% 29.58 in 10.0 mi SSE 8.1 mph - N/A   Clear
7:50 PM 71.6 °F 44.6 °F 38% 29.58 in 10.0 mi SSE 9.2 mph - N/A   Clear
8:10 PM 68.0 °F 44.6 °F 43% 29.58 in 10.0 mi SSE 9.2 mph - N/A   Clear
8:30 PM 68.0 °F 46.4 °F 46% 29.59 in 10.0 mi South 8.1 mph - N/A   Clear
8:50 PM 66.2 °F 46.4 °F 49% 29.59 in 10.0 mi South 5.8 mph - N/A   Clear
9:10 PM 66.2 °F 48.2 °F 52% 29.58 in 10.0 mi South 6.9 mph - N/A   Clear
9:30 PM 68.0 °F 48.2 °F 49% 29.58 in 10.0 mi South 10.4 mph - N/A   Clear
9:50 PM 68.0 °F 48.2 °F 49% 29.58 in 10.0 mi South 13.8 mph 20.7 mph N/A   Clear
10:10 PM 69.8 °F 48.2 °F 46% 29.58 in 10.0 mi SSW 17.3 mph 23.0 mph N/A   Clear
10:30 PM 69.8 °F 48.2 °F 46% 29.58 in 10.0 mi South 15.0 mph 21.9 mph N/A   Clear
10:50 PM 68.0 °F 48.2 °F 49% 29.58 in 10.0 mi SSW 13.8 mph 20.7 mph N/A   Clear
11:10 PM 68.0 °F 48.2 °F 49% 29.58 in 10.0 mi SSW 15.0 mph 20.7 mph N/A   Clear
11:30 PM 68.0 °F 48.2 °F 49% 29.58 in 10.0 mi SSW 17.3 mph 24.2 mph N/A   Clear
11:50 PM 68.0 °F 48.2 °F 49% 29.57 in 10.0 mi SSW 16.1 mph 23.0 mph N/A   Clear